Wolf Creek Pass, CO

1:12 AM MDT on March 23, 2017 (GMT -0600)
Wolf Creek Pass

Weather History for KCPW - May, 2013

Change the Weather History Date:

Friday, May 31, 2013

  Actual Average (KE33) Record (KE33)
Temperature  
Mean Temperature 40 °F -  
Max Temperature 48 °F 68 °F 87 °F (2002)
Min Temperature 32 °F 43 °F 37 °F (2011)
Degree Days  
Heating Degree Days 25    
Moisture  
Dew Point 11 °F    
Average Humidity 34    
Maximum Humidity 45    
Minimum Humidity 14    
Precipitation  
Precipitation 0.00 in - - ()
Sea Level Pressure  
Sea Level Pressure 30.27 in    
Wind  
Wind Speed 17 mph (WSW)    
Max Wind Speed 30 mph    
Max Gust Speed 43 mph    
Visibility 10 miles    
Events      
Averages and records for this station are not official NWS values.
T = Trace of Precipitation, MM = Missing Value Source: NWS Daily Summary

Daily Weather History Graph

Daily Weather History Graph

Search for Another Location

Airport or City:

Trip Planner

Search our weather history database for the weather conditions in past years. The results will help you decide how hot, cold, wet, or windy it might be!

Date:

Astronomy

May. 31, 2013 Rise Set
Actual Time 5:48 AM MDT 8:22 PM MDT
Civil Twilight 5:17 AM MDT 8:52 PM MDT
Nautical Twilight 4:39 AM MDT 9:30 PM MDT
Astronomical Twilight 3:57 AM MDT 10:12 PM MDT
Moon 1:04 AM MDT (5/31) 12:59 PM MDT (5/31)
Length of Visible Light 15h 34m
Length of Day
14h 33m
Waning Gibbous, 51% of the Moon is Illuminated
May 31
Waning Gibbous
May 31
Last Quarter
Jun 8
New
Jun 16
First Quarter
Jun 23
Full

Hourly Weather History & Observations

Time (MDT) Temp. Windchill Dew Point Humidity Pressure Visibility Wind Dir Wind Speed Gust Speed Precip Events Conditions
12:03 AM 35.6 °F 26.2 °F 14.0 °F 41% 30.24 in 10.0 mi WSW 15.0 mph 24.2 mph N/A   Scattered Clouds
12:23 AM 35.6 °F 25.9 °F 14.0 °F 41% 30.24 in 10.0 mi SW 16.1 mph 31.1 mph N/A   Clear
12:43 AM 35.6 °F 25.9 °F 14.0 °F 41% 30.24 in 10.0 mi SW 16.1 mph 19.6 mph N/A   Clear
1:03 AM 35.6 °F 25.5 °F 14.0 °F 41% 30.24 in 10.0 mi SW 17.3 mph - N/A   Scattered Clouds
1:23 AM 35.6 °F 25.5 °F 14.0 °F 41% 30.24 in 10.0 mi SW 17.3 mph 24.2 mph N/A   Mostly Cloudy
1:43 AM 35.6 °F 25.5 °F 14.0 °F 41% 30.23 in 10.0 mi SW 17.3 mph 24.2 mph N/A   Overcast
2:03 AM 35.6 °F 25.9 °F 14.0 °F 41% 30.23 in 10.0 mi SSW 16.1 mph 25.3 mph N/A   Overcast
2:23 AM 35.6 °F 24.8 °F 14.0 °F 41% 30.23 in 10.0 mi SW 19.6 mph 28.8 mph N/A   Mostly Cloudy
2:43 AM 33.8 °F 22.2 °F 14.0 °F 44% 30.23 in 10.0 mi SW 20.7 mph 29.9 mph N/A   Mostly Cloudy
3:03 AM 33.8 °F 21.6 °F 14.0 °F 44% 30.22 in 10.0 mi SW 23.0 mph 29.9 mph N/A   Scattered Clouds
3:23 AM 33.8 °F 21.9 °F 14.0 °F 44% 30.22 in 10.0 mi SW 21.9 mph 27.6 mph N/A   Clear
3:43 AM 33.8 °F 22.2 °F 14.0 °F 44% 30.22 in 10.0 mi SW 20.7 mph 27.6 mph N/A   Clear
4:03 AM 33.8 °F 21.3 °F 14.0 °F 44% 30.22 in 10.0 mi SW 24.2 mph 28.8 mph N/A   Clear
4:23 AM 33.8 °F 22.5 °F 14.0 °F 44% 30.22 in 10.0 mi SW 19.6 mph 33.4 mph N/A   Clear
4:43 AM 33.8 °F 21.6 °F 14.0 °F 44% 30.22 in 10.0 mi SW 23.0 mph 33.4 mph N/A   Clear
5:03 AM 33.8 °F 21.3 °F 12.2 °F 41% 30.22 in 10.0 mi SW 24.2 mph 34.5 mph N/A   Clear
5:23 AM 33.8 °F 20.5 °F 12.2 °F 41% 30.22 in 10.0 mi SW 27.6 mph 38.0 mph N/A   Clear
5:43 AM 33.8 °F 21.3 °F 12.2 °F 41% 30.22 in 10.0 mi SW 24.2 mph 33.4 mph N/A   Clear
6:03 AM 33.8 °F 21.3 °F 12.2 °F 41% 30.22 in 10.0 mi SW 24.2 mph 32.2 mph N/A   Clear
6:23 AM 33.8 °F 21.3 °F 12.2 °F 41% 30.22 in 10.0 mi SW 24.2 mph 34.5 mph N/A   Clear
6:43 AM 33.8 °F 21.0 °F 12.2 °F 41% 30.22 in 10.0 mi SW 25.3 mph 34.5 mph N/A   Clear
7:03 AM 33.8 °F 21.6 °F 12.2 °F 41% 30.23 in 10.0 mi SW 23.0 mph 35.7 mph N/A   Clear
7:23 AM 33.8 °F 20.8 °F 12.2 °F 41% 30.24 in 10.0 mi SW 26.5 mph 34.5 mph N/A   Clear
7:43 AM 33.8 °F 21.6 °F 14.0 °F 44% 30.24 in 10.0 mi SW 23.0 mph 35.7 mph N/A   Clear
8:03 AM 35.6 °F 24.5 °F 14.0 °F 41% 30.24 in 10.0 mi SW 20.7 mph 36.8 mph N/A   Scattered Clouds
8:23 AM 35.6 °F 25.9 °F 14.0 °F 41% 30.26 in 10.0 mi SW 16.1 mph 27.6 mph N/A   Mostly Cloudy
8:43 AM 35.6 °F 25.9 °F 15.8 °F 44% 30.27 in 10.0 mi SW 16.1 mph 28.8 mph N/A   Overcast
9:03 AM 37.4 °F 27.5 °F 17.6 °F 45% 30.27 in 10.0 mi WSW 18.4 mph 28.8 mph N/A   Mostly Cloudy
9:23 AM 37.4 °F 27.5 °F 17.6 °F 45% 30.27 in 10.0 mi WSW 18.4 mph 29.9 mph N/A   Scattered Clouds
9:43 AM 39.2 °F 30.5 °F 17.6 °F 42% 30.28 in 10.0 mi WSW 16.1 mph 28.8 mph N/A   Mostly Cloudy
10:03 AM 37.4 °F 26.9 °F 17.6 °F 45% 30.28 in 10.0 mi SW 20.7 mph 27.6 mph N/A   Mostly Cloudy
10:23 AM 39.2 °F 29.6 °F 19.4 °F 45% 30.28 in 10.0 mi SW 19.6 mph 27.6 mph N/A   Mostly Cloudy
10:43 AM 41.0 °F 33.5 °F 19.4 °F 42% 30.28 in 10.0 mi SW 13.8 mph 28.8 mph N/A   Mostly Cloudy
11:03 AM 41.0 °F 32.5 °F 19.4 °F 42% 30.28 in 10.0 mi SSW 17.3 mph 31.1 mph N/A   Scattered Clouds
11:23 AM 41.0 °F 32.8 °F 19.4 °F 42% 30.29 in 10.0 mi SW 16.1 mph 23.0 mph N/A   Scattered Clouds
11:43 AM 42.8 °F 33.8 °F 19.4 °F 39% 30.29 in 10.0 mi SW 21.9 mph 29.9 mph N/A   Scattered Clouds
12:03 PM 42.8 °F 34.8 °F 15.8 °F 34% 30.28 in 10.0 mi WSW 17.3 mph 33.4 mph N/A   Scattered Clouds
12:23 PM 44.6 °F 37.8 °F 14.0 °F 29% 30.27 in 10.0 mi SW 15.0 mph 32.2 mph N/A   Scattered Clouds
12:43 PM 44.6 °F 35.7 °F 12.2 °F 27% 30.27 in 10.0 mi WSW 24.2 mph 33.4 mph N/A   Scattered Clouds
1:03 PM 44.6 °F 37.8 °F 10.4 °F 25% 30.27 in 10.0 mi SSW 15.0 mph 36.8 mph N/A   Clear
1:23 PM 44.6 °F 38.8 °F 8.6 °F 23% 30.27 in 10.0 mi South 11.5 mph 33.4 mph N/A   Clear
1:43 PM 46.4 °F 37.2 °F 6.8 °F 20% 30.27 in 10.0 mi SW 29.9 mph 36.8 mph N/A   Clear
2:03 PM 46.4 °F 40.1 °F 5.0 °F 18% 30.27 in 10.0 mi West 15.0 mph 35.7 mph N/A   Clear
2:23 PM 46.4 °F 42.4 °F 3.2 °F 17% 30.27 in 10.0 mi WNW 8.1 mph 23.0 mph N/A   Clear
2:43 PM 46.4 °F 40.4 °F 3.2 °F 17% 30.27 in 10.0 mi WSW 13.8 mph 24.2 mph N/A   Clear
3:03 PM 46.4 °F 40.1 °F 3.2 °F 17% 30.27 in 10.0 mi West 15.0 mph 21.9 mph N/A   Clear
3:23 PM 48.2 °F - 3.2 °F 16% 30.27 in 10.0 mi WSW 15.0 mph 24.2 mph N/A   Clear
3:43 PM 48.2 °F - 3.2 °F 16% 30.27 in 10.0 mi West 12.7 mph 24.2 mph N/A   Clear
4:03 PM 46.4 °F 42.4 °F 3.2 °F 17% 30.28 in 10.0 mi West 8.1 mph 26.5 mph N/A   Clear
4:23 PM 46.4 °F 40.4 °F 3.2 °F 17% 30.27 in 10.0 mi West 13.8 mph 33.4 mph N/A   Clear
4:43 PM 46.4 °F 39.8 °F 3.2 °F 17% 30.27 in 10.0 mi WSW 16.1 mph 36.8 mph N/A   Clear
5:03 PM 46.4 °F 38.7 °F 1.4 °F 16% 30.26 in 10.0 mi SW 20.7 mph 41.4 mph N/A   Clear
5:23 PM 46.4 °F 37.2 °F -0.4 °F 14% 30.27 in 10.0 mi WSW 29.9 mph 42.6 mph N/A   Clear
5:43 PM 44.6 °F 38.1 °F -0.4 °F 15% 30.28 in 10.0 mi West 13.8 mph 38.0 mph N/A   Clear
6:43 PM 44.6 °F 36.9 °F -2.2 °F 14% 30.30 in 10.0 mi West 18.4 mph 34.5 mph N/A   Clear
7:03 PM 42.8 °F 35.4 °F -0.4 °F 16% 30.31 in 10.0 mi WSW 15.0 mph 33.4 mph N/A   Clear
7:23 PM 42.8 °F 35.4 °F 1.4 °F 18% 30.31 in 10.0 mi WSW 15.0 mph 28.8 mph N/A   Clear
7:43 PM 42.8 °F 37.5 °F 3.2 °F 19% 30.32 in 10.0 mi WNW 9.2 mph 20.7 mph N/A   Clear
8:03 PM 39.2 °F 35.0 °F 6.8 °F 26% 30.33 in 10.0 mi North 5.8 mph 20.7 mph N/A   Clear
8:23 PM 37.4 °F 30.8 °F 8.6 °F 30% 30.33 in 10.0 mi NW 9.2 mph 20.7 mph N/A   Clear
8:43 PM 35.6 °F 31.7 °F 8.6 °F 33% 30.34 in 10.0 mi NNW 4.6 mph - N/A   Clear
9:03 PM 35.6 °F 31.7 °F 8.6 °F 33% 30.34 in 10.0 mi North 4.6 mph - N/A   Clear
9:23 PM 35.6 °F 28.6 °F 10.4 °F 35% 30.35 in 10.0 mi North 9.2 mph 16.1 mph N/A   Clear
9:43 PM 33.8 °F 28.6 °F 10.4 °F 38% 30.36 in 10.0 mi North 5.8 mph - N/A   Clear
10:03 PM 33.8 °F 29.6 °F 10.4 °F 38% 30.37 in 10.0 mi North 4.6 mph - N/A   Clear
10:23 PM 33.8 °F 27.0 °F 12.2 °F 41% 30.37 in 10.0 mi NNW 8.1 mph - N/A   Clear
10:43 PM 32.0 °F 27.5 °F 12.2 °F 44% 30.38 in 10.0 mi NW 4.6 mph - N/A   Clear
11:03 PM 32.0 °F 26.4 °F 12.2 °F 44% 30.39 in 10.0 mi NNW 5.8 mph - N/A   Clear
11:23 PM 32.0 °F 25.6 °F 12.2 °F 44% 30.39 in 10.0 mi North 6.9 mph 17.3 mph N/A   Clear
11:43 PM 32.0 °F 27.5 °F 10.4 °F 41% 30.39 in 10.0 mi North 4.6 mph - N/A   Clear